www.pogodaiklimat.ru

Погода и климат >> Архив погоды >> Пакистан >> Badin


ПОГОДА в Badin

  • Прогноз погоды в Badin
  • Монитор погоды в Badin
  • Климат города

АРХИВ ПОГОДЫ в Badin

Время (UTC), дата Ветер
(напр.,м/с)
 
Видим.   Явления Облачность Т
(С)
Тd
(С)
f
(%)
Тe
(С)
Тes
(С)
Комфортность P
(гПа)
Po
(гПа)
Тmin
(С)
Tmax
(С)
R
(мм)
R24
(мм)
S
(см)
00 11.08 ЮЗ 3 4000 м 8/0 1000 м
[Ac trans]
+27.0 +25.6 92 +40 +40 очень
душно
1000.2 998.9
03 11.08 ЮЗ 2 10 км 4/0 1000 м
[Ac trans]
+28.5 +25.4 83 +42 +45 опасность
перегрева
1001.4 1000.1 +26.0
06 11.08 З 4 10 км 6/4 900 м
[St Ci fib]
+31.5 +24.4 66 +44 +51 опасность
перегрева
1001.8 1002.0
09 11.08 ЮЗ 4 10 км 10/10 900 м
[St]
+32.5 +24.8 64 +46 +46 опасность
перегрева
1000.3 1000.0
12 11.08 ЮЗ 3 10 км 8/4 300 м
[St Ac trans]
+31.5 +25.2 69 +45 +47 опасность
перегрева
999.7 998.4 +33.1
15 11.08 ЮЗ 5 4000 м 10/6 900 м
[St Ac trans]
+28.5 +25.0 81 +41 +41 опасность
перегрева
1001.1 1001.0
18 11.08 З 2 4000 м 5/3 300 м
[St Ac trans]
+28.0 +25.2 85 +41 +41 опасность
перегрева
1002.2 1000.0
21 11.08 З 3 4000 м 6/4 900 м
[St Ac trans]
+27.0 +25.6 92 +40 +40 очень
душно
1001.3 1001.0
00 12.08 З 3 4000 м 6/4 900 м
[St Ac trans]
+26.0 +25.3 96 +38 +38 очень
душно
1000.4 999.1
03 12.08 З 2 10 км 8/4 300 м
[St Ac trans]
+28.0 +25.2 85 +41 +42 опасность
перегрева
1000.9 999.6 +25.5
06 12.08 З 5 10 км 9/4 900 м
[St Ac trans]
+30.5 +24.9 72 +44 +46 опасность
перегрева
1001.7 1002.0
09 12.08 ЮЗ 6 10 км 9/4 900 м
[St Ac trans]
+31.5 +24.4 66 +44 +46 опасность
перегрева
999.7 1000.0
12 12.08 ЮЗ 7 10 км 9/6 900 м
[St Ac trans]
+31.5 +24.4 66 +44 +44 опасность
перегрева
999.3 998.0 +32.5
15 12.08 ЮЗ 3 4000 м 8/0 300 м
[]
+29.0 +24.8 78 +41 +41 опасность
перегрева
1000.5 1000.0
18 12.08 ЮЗ 2 4000 м 8/0 300 м
[]
+27.5 +24.7 85 +39 +39 очень
душно
1001.7 1000.0
21 12.08 ЮЗ 3 4000 м 8/8 900 м
[]
+26.5 +24.4 88 +37 +37 очень
душно
1000.2 1000.0
03 13.08 ЮЗ 2 10 км 10/4 300 м
[St Ac trans]
+28.5 +24.2 78 +40 +41 очень
душно
1000.3 999.0 +25.5
06 13.08 ЮЗ 6 10 км 10/8 900 м
[St Ac trans]
+30.0 +23.8 69 +41 +42 опасность
перегрева
1001.5 1002.0
09 13.08 З 3 10 км 8/8 300 м
[St Ac trans]
+32.0 +24.2 63 +44 +47 опасность
перегрева
1010.0 1000.0
12 13.08 З 6 10 км 8/8 900 м
[St]
+31.0 +23.9 66 +43 +43 опасность
перегрева
1000.4 999.1 +32.5
15 13.08 З 5 4000 м 9/9 900 м
[St]
+29.5 +23.8 71 +40 +40 очень
душно
1001.9 1002.0
18 13.08 З 4 4000 м ясно +28.0 +23.7 77 +38 +38 очень
душно
1003.2 1003.0
21 13.08 З 4 4000 м 10/6 900 м
[St Ac trans]
+27.0 +23.4 81 +37 +37 очень
душно
1002.4 1002.0
00 14.08 З 3 4000 м 4/4 900 м
[St]
+26.5 +23.8 85 +36 +36 очень
душно
1001.4 1000.1
03 14.08 З 4 10 км ясно +28.5 +24.2 78 +40 +43 очень
душно
1003.2 1001.9 +26.0
06 14.08 ЮЗ 6 10 км 8/8 900 м
[St]
+30.5 +24.1 69 +42 +44 опасность
перегрева
1005.0 1005.0
09 14.08 ЮЗ 5 10 км 8/8 900 м
[St]
+32.5 +24.0 61 +44 +46 опасность
перегрева
1003.7 1004.0
12 14.08 З 5 10 км 4/4 900 м
[St]
+32.0 +24.2 63 +44 +45 опасность
перегрева
1003.3 1002.0 +34.0
15 14.08 З 5 4000 м ясно +29.5 +23.8 71 +40 +40 очень
душно
1004.5 1005.0
18 14.08 З 3 4000 м ясно +28.0 +23.7 77 +38 +38 очень
душно
1005.7 1006.0
21 14.08 З 3 4000 м ясно +27.0 +24.1 84 +37 +37 очень
душно
1004.4 1004.0
00 15.08 З 3 4000 м ясно +26.0 +23.8 88 +36 +36 очень
душно
1003.4 1002.1
03 15.08 З 2 10 км ясно +28.0 +24.4 81 +39 +44 очень
душно
1005.2 1003.9 +25.5
06 15.08 З 4 10 км 4/4 900 м
[St]
+31.0 +24.6 69 +44 +51 опасность
перегрева
1006.7 1007.0
09 15.08 З 5 10 км 5/5 900 м
[St]
+33.0 +23.8 59 +45 +49 опасность
перегрева
1000.5 1001.0
12 15.08 10 км н/о +32.5 +24.0 61 +44 +47 опасность
перегрева
1003.6 1002.3 +34.1
15 15.08 З 2 4000 м ясно +30.0 +23.5 68 +41 +41 опасность
перегрева
1004.7 1000.0
18 15.08 З 4 4000 м ясно +28.0 +23.7 77 +38 +38 очень
душно
1005.7 1006.0
21 15.08 З 3 4000 м ясно +27.0 +24.1 84 +37 +37 очень
душно
1004.3 1004.0
00 16.08 З 2 4000 м ясно +26.5 +24.4 88 +37 +37 очень
душно
1003.5 1002.2
03 16.08 З 3 1000 м ясно +28.0 +24.4 81 +39 +43 очень
душно
1005.5 1004.2 +26.0
06 16.08 З 5 10 км ясно +31.5 +23.6 63 +43 +52 опасность
перегрева
1005.8 1006.0
09 16.08 10 км н/о +33.0 +23.8 59 +45 +55 опасность
перегрева
1003.0 1000.0
12 16.08 10 км н/о +32.5 +24.0 61 +44 +47 опасность
перегрева
1001.7 1000.4 +33.5
15 16.08 З 2 4000 м ясно +29.5 +23.8 71 +40 +40 очень
душно
1003.1 1000.0
18 16.08 З 2 4000 м ясно +27.5 +23.9 81 +38 +38 очень
душно
1004.2 1000.0
21 16.08 З 3 4000 м ясно +26.5 +24.4 88 +37 +37 очень
душно
1003.6 1004.0
00 17.08 З 3 4000 м ясно +26.0 +23.8 88 +36 +36 очень
душно
1002.0 1000.7
03 17.08 З 2 10 км 8/8 300 м
[St]
+28.0 +23.7 77 +38 +39 очень
душно
1002.4 1001.1 +25.5
06 17.08 З 3 10 км 8/8 300 м
[St]
+30.5 +23.3 65 +41 +44 опасность
перегрева
1002.9 1000.0
09 17.08 З 4 10 км 8/5 <50 м
[St]
+32.5 +23.2 58 +43 +47 опасность
перегрева
1000.5 1001.0
12 17.08 З 5 10 км 4/4 <50 м
[St]
+32.5 +24.0 61 +44 +45 опасность
перегрева
999.1 997.8 +33.0
15 17.08 З 4 4000 м ясно +29.5 +23.8 71 +40 +40 очень
душно
1000.7 1001.0
18 17.08 З 2 4000 м ясно +28.5 +23.7 75 +39 +39 очень
душно
1002.1 1000.0
21 17.08 З 2 4000 м ясно +27.5 +23.9 81 +38 +38 очень
душно
1000.7 1000.0

 

Местоположение метеостанции Badin (Пакистан): широта 24.63 долгота 68.90 высота над уровнем моря 11 м.

В архиве по умолчанию представлена погода в Badin за последнюю неделю. Архивные данные за месяц целиком и за предыдущие месяцы, начиная с января 2011 года, Вы можете получить, выбрав интересующий диапазон дат из раскрывающегося списка и нажав кнопку "Ввод!".

Внимание! Время в таблицах - всемирное. Для получения местного времени необходимо прибавить поправку, которая в Badin равна 5 ч.

Смотрите также архив погоды в соседних городах и на ближайших метеорологических станциях:

Погода в Hyderabad Airport (Пакистан) (96 км)
Погода в Chhor (Пакистан) (133 км)
Погода в Naliya (Gujarat, Индия) (154 км)
Погода в Bhuj-Rudramata (Gujarat, Индия) (172 км)
Погода в Karachi (Пакистан) (181 км)
Погода в Nawabshah (Пакистан) (188 км)
Погода в Mandvi (Gujarat, Индия) (205 км)
Погода в Kandla (Gujarat, Индия) (209 км)
Погода в New Kandla (Gujarat, Индия) (226 км)
Погода в Okha (Gujarat, Индия) (240 км)

Пояснения к столбцам:

Ветер - указаны скорость ветра в м/с - средняя за 10 мин, порывы в срок и между сроками (в фигурных скобках) и направление, откуда дует ветер: С - северный, СВ - северо-восточный, В - восточный, ЮВ - юго-восточный, Ю - южный, ЮЗ - юго-западный, З - западный, СЗ - северо-западный.
Видимость - горизонтальная дальность видимости в метрах или километрах. При видимости от 1 до 10 км при отсутствии осадков обычно наблюдается дымка, при ухудшении видимости до 1 км и менее - туман. В сухую погоду видимость может ухудшаться дымом, пылью или мглою.
Явления - указаны атмосферные явления, наблюдавшиеся в срок или в последний час перед сроком; фигурными скобками обозначены явления, наблюдавшиеся между сроками (за 1-3 часа до срока); квадратными скобками обозначены град или гололедные отложения с указанием их диаметра в мм.
Облачность - указаны через наклонную черту общая и нижняя облачность в баллах и высота нижней границы облаков в метрах; квадратными скобками обозначены формы облаков: Ci - перистые, Cs - перисто-слоистые, Cc - перисто-кучевые, Ac - высококучевые, As - высокослоистые, Sc - слоисто-кучевые, Ns - слоисто-дождевые, Cu - кучевые, Cb - кучево-дождевые. Подробнее классификацию облаков см. в Атласе облаков (PDF).
T - Температура воздуха - температура, измеренная на высоте 2 м над землей.
Td - Температура точки росы - температура, при понижении до которой содержащийся в воздухе водяной пар достигнет насыщения.
f - Относительная влажность воздуха - влажноcть воздуха, измеренная на высоте 2 м над землей.
Te - Эффективная температура - температура, которую ощущает одетый по сезону человек в тени. Характеристика душности погоды. При расчете учитывается влияние влажности воздуха и скорости ветра на теплоощущения человека.
Tes - Эффективная температура на солнце - температура, которую ощущает человек, с поправкой на солнечный нагрев. Характеристика знойности погоды. Зависит от высоты солнца над горизонтом, облачности и скорости ветра. Ночью, в пасмурную погоду, а также при ветре 12 м/с и более поправка равна нулю.
P - Атмосферное давление - приведенное к уровню моря атмосферное давление.
Po - Атмосферное давление - измеренное на уровне метеостанции атмосферное давление.
Tmin - Минимальная температура - минимум температуры воздуха на высоте 2 м над землей.
Tmax - Максимальная температура - максимум температуры воздуха на высоте 2 м над землей.
R - Количество осадков - Количество выпавших осадков за период времени, мм. При наведении курсора мыши на число - период времени, за который выпало указанное количество осадков.
R24 - Количество осадков - Количество выпавших осадков за 24 часа, мм.
S - Снежный покров - Высота снежного покрова, см. При наведении курсора мыши на число - состояние снежного покрова и степень покрытия местности в баллах.